Year,Month,Day,Hour,Minute,Value (Times are PST for temperature in C)
2007,03,28,11,10,8.30
2007,03,28,11,11,8.20
2007,03,28,11,12,8.20
2007,03,28,11,13,8.20
2007,03,28,11,14,8.20
2007,03,28,11,15,8.20
2007,03,28,11,16,8.20
2007,03,28,11,17,8.20
2007,03,28,11,18,8.10
2007,03,28,11,19,8.10
2007,03,28,11,20,8.10
2007,03,28,11,21,8.10
2007,03,28,11,22,8.10
2007,03,28,11,23,8.10
2007,03,28,11,24,8.20
2007,03,28,11,25,8.20
2007,03,28,11,26,8.20
2007,03,28,11,27,8.20
2007,03,28,11,28,8.20
2007,03,28,11,29,8.20
2007,03,28,11,30,8.20
2007,03,28,11,31,8.20
2007,03,28,11,32,8.30
2007,03,28,11,33,8.30
2007,03,28,11,34,8.30
2007,03,28,11,35,8.30
2007,03,28,11,36,8.40
2007,03,28,11,37,8.30
2007,03,28,11,38,8.30
2007,03,28,11,39,8.30
2007,03,28,11,40,8.30
2007,03,28,11,41,8.30
2007,03,28,11,42,8.30
2007,03,28,11,43,8.30
2007,03,28,11,44,8.40
2007,03,28,11,45,8.40
2007,03,28,11,46,8.40
2007,03,28,11,47,8.40
2007,03,28,11,48,8.50
2007,03,28,11,49,8.50
2007,03,28,11,50,8.50
2007,03,28,11,51,8.60
2007,03,28,11,52,8.60
2007,03,28,11,53,8.70
2007,03,28,11,54,8.70
2007,03,28,11,55,8.70
2007,03,28,11,56,8.70
2007,03,28,11,57,8.70
2007,03,28,11,58,8.80
2007,03,28,11,59,8.90
2007,03,28,12,00,8.90
2007,03,28,12,01,8.90
2007,03,28,12,02,9.00
2007,03,28,12,03,9.00
2007,03,28,12,04,9.00
2007,03,28,12,05,9.00
2007,03,28,12,06,9.10
2007,03,28,12,07,9.10
2007,03,28,12,08,9.10
2007,03,28,12,09,9.10
2007,03,28,12,10,9.10
2007,03,28,12,11,9.10
2007,03,28,12,12,9.10
2007,03,28,12,13,9.10
2007,03,28,12,14,9.20
2007,03,28,12,15,9.20
2007,03,28,12,16,9.20
2007,03,28,12,17,9.20
2007,03,28,12,18,9.20
2007,03,28,12,19,9.20
2007,03,28,12,20,9.20
2007,03,28,12,21,9.20
2007,03,28,12,22,9.20
2007,03,28,12,23,9.20
2007,03,28,12,24,9.20
2007,03,28,12,25,9.20
2007,03,28,12,26,9.30
2007,03,28,12,27,9.40
2007,03,28,12,28,9.40
2007,03,28,12,29,9.50
2007,03,28,12,30,9.50
2007,03,28,12,31,9.50
2007,03,28,12,32,9.50
2007,03,28,12,33,9.50
2007,03,28,12,34,9.50
2007,03,28,12,35,9.50
2007,03,28,12,36,9.50
2007,03,28,12,37,9.50
2007,03,28,12,38,9.60
2007,03,28,12,39,9.60
2007,03,28,12,40,9.60
2007,03,28,12,41,9.70
2007,03,28,12,42,9.70
2007,03,28,12,43,9.70
2007,03,28,12,44,9.80
2007,03,28,12,45,9.90
2007,03,28,12,46,9.90
2007,03,28,12,47,10.10
2007,03,28,12,48,10.10
2007,03,28,12,49,10.10
2007,03,28,12,50,10.10
2007,03,28,12,51,10.10
2007,03,28,12,52,10.20
2007,03,28,12,53,10.20
2007,03,28,12,54,10.30
2007,03,28,12,55,10.30
2007,03,28,12,56,10.40
2007,03,28,12,57,10.40
2007,03,28,12,58,10.30
2007,03,28,12,59,10.30
2007,03,28,13,00,10.20
2007,03,28,13,01,10.20
2007,03,28,13,02,10.20
2007,03,28,13,03,10.20
2007,03,28,13,04,10.30
2007,03,28,13,05,10.40
2007,03,28,13,06,10.60
2007,03,28,13,07,10.70
2007,03,28,13,08,10.80
2007,03,28,13,09,10.70
2007,03,28,13,10,10.70
2007,03,28,13,11,10.60
2007,03,28,13,12,10.40
2007,03,28,13,13,10.40
2007,03,28,13,14,10.30
2007,03,28,13,15,10.30
2007,03,28,13,16,10.30
2007,03,28,13,17,10.30
2007,03,28,13,18,10.20
2007,03,28,13,19,10.20
2007,03,28,13,20,10.20
2007,03,28,13,21,10.20
2007,03,28,13,22,10.20
2007,03,28,13,23,10.30
2007,03,28,13,24,10.30
2007,03,28,13,25,10.30
2007,03,28,13,26,10.40
2007,03,28,13,27,10.40
2007,03,28,13,28,10.40
2007,03,28,13,29,10.50
2007,03,28,13,30,10.60
2007,03,28,13,31,10.70
2007,03,28,13,32,10.80
2007,03,28,13,33,10.80
2007,03,28,13,34,10.80
2007,03,28,13,35,10.80
2007,03,28,13,36,10.70
2007,03,28,13,37,10.60
2007,03,28,13,38,10.60
2007,03,28,13,39,10.60
2007,03,28,13,40,10.60
2007,03,28,13,41,10.60
2007,03,28,13,42,10.60
2007,03,28,13,43,10.60
2007,03,28,13,44,10.70
2007,03,28,13,45,10.80
2007,03,28,13,46,10.80
2007,03,28,13,47,11.00
2007,03,28,13,48,11.10
2007,03,28,13,49,11.30
2007,03,28,13,50,11.30
2007,03,28,13,51,11.30
2007,03,28,13,52,11.40
2007,03,28,13,53,11.50
2007,03,28,13,54,11.60
2007,03,28,13,55,11.60
2007,03,28,13,56,11.60
2007,03,28,13,57,11.60
2007,03,28,13,58,11.70
2007,03,28,13,59,11.70
2007,03,28,14,00,11.80
2007,03,28,14,01,11.80
2007,03,28,14,02,11.80
2007,03,28,14,03,11.80
2007,03,28,14,04,11.70
2007,03,28,14,05,11.80
2007,03,28,14,06,11.80
2007,03,28,14,07,11.70
2007,03,28,14,08,11.60
2007,03,28,14,09,11.60
2007,03,28,14,10,11.60
2007,03,28,14,11,11.60
2007,03,28,14,12,11.60
2007,03,28,14,13,11.60
2007,03,28,14,14,11.60
2007,03,28,14,15,11.60
2007,03,28,14,16,11.60
2007,03,28,14,17,11.60
2007,03,28,14,18,11.60
2007,03,28,14,19,11.60
2007,03,28,14,20,11.60
2007,03,28,14,21,11.70
2007,03,28,14,22,11.70
2007,03,28,14,23,11.60
2007,03,28,14,24,11.70
2007,03,28,14,25,11.70
2007,03,28,14,26,11.70
2007,03,28,14,27,11.80
2007,03,28,14,28,11.80
2007,03,28,14,29,12.00
2007,03,28,14,30,12.10
2007,03,28,14,31,12.10
2007,03,28,14,32,12.00
2007,03,28,14,33,12.00
2007,03,28,14,34,12.10
2007,03,28,14,35,12.00
2007,03,28,14,36,11.90
2007,03,28,14,37,11.90
2007,03,28,14,38,11.80
2007,03,28,14,39,11.80
2007,03,28,14,40,11.80
2007,03,28,14,41,11.80
2007,03,28,14,42,11.80
2007,03,28,14,43,11.70
2007,03,28,14,44,11.70
2007,03,28,14,45,11.60
2007,03,28,14,46,11.60
2007,03,28,14,47,11.60
2007,03,28,14,48,11.60
2007,03,28,14,49,11.60
2007,03,28,14,50,11.60
2007,03,28,14,51,11.60
2007,03,28,14,52,11.60
2007,03,28,14,53,11.60
2007,03,28,14,54,11.50
2007,03,28,14,55,11.40
2007,03,28,14,56,11.40
2007,03,28,14,57,11.40
2007,03,28,14,58,11.40
2007,03,28,14,59,11.40
2007,03,28,15,00,11.40
2007,03,28,15,01,11.40
2007,03,28,15,02,11.40
2007,03,28,15,03,11.40
2007,03,28,15,04,11.40
2007,03,28,15,05,11.40
2007,03,28,15,06,11.40
2007,03,28,15,07,11.40
2007,03,28,15,08,11.40
2007,03,28,15,09,11.50
2007,03,28,15,10,11.60
2007,03,28,15,11,11.60
2007,03,28,15,12,11.60
2007,03,28,15,13,11.60
2007,03,28,15,14,11.60
2007,03,28,15,15,11.60
2007,03,28,15,16,11.60
2007,03,28,15,17,11.60
2007,03,28,15,18,11.60
2007,03,28,15,19,11.60
2007,03,28,15,20,11.50
2007,03,28,15,21,11.60
2007,03,28,15,22,11.50
2007,03,28,15,23,11.40
2007,03,28,15,24,11.40
2007,03,28,15,25,11.40
2007,03,28,15,26,11.40
2007,03,28,15,27,11.40
2007,03,28,15,28,11.30
2007,03,28,15,29,11.30
2007,03,28,15,30,11.30
2007,03,28,15,31,11.40
2007,03,28,15,32,11.40
2007,03,28,15,33,11.40
2007,03,28,15,34,11.30
2007,03,28,15,35,11.30
2007,03,28,15,36,11.30
2007,03,28,15,37,11.30
2007,03,28,15,38,11.20
2007,03,28,15,39,11.20
2007,03,28,15,40,11.20
2007,03,28,15,41,11.10
2007,03,28,15,42,11.10
2007,03,28,15,43,11.10
2007,03,28,15,44,11.10
2007,03,28,15,45,11.10
2007,03,28,15,46,11.20
2007,03,28,15,47,11.20
2007,03,28,15,48,11.10
2007,03,28,15,49,11.10
2007,03,28,15,50,11.10
2007,03,28,15,51,11.10
2007,03,28,15,52,11.10
2007,03,28,15,53,11.10
2007,03,28,15,54,11.10
2007,03,28,15,55,11.10
2007,03,28,15,56,11.10
2007,03,28,15,57,11.10
2007,03,28,15,58,11.20
2007,03,28,15,59,11.20
2007,03,28,16,00,11.20
2007,03,28,16,01,11.20
2007,03,28,16,02,11.20
2007,03,28,16,03,11.30
2007,03,28,16,04,11.30
2007,03,28,16,05,11.30
2007,03,28,16,06,11.40
2007,03,28,16,07,11.40
2007,03,28,16,08,11.30
2007,03,28,16,09,11.30
2007,03,28,16,10,11.40
2007,03,28,16,11,11.40
2007,03,28,16,12,11.40
2007,03,28,16,13,11.40
2007,03,28,16,14,11.40
2007,03,28,16,15,11.40
2007,03,28,16,16,11.30
2007,03,28,16,17,11.30
2007,03,28,16,18,11.30
2007,03,28,16,19,11.30
2007,03,28,16,20,11.30
2007,03,28,16,21,11.40
2007,03,28,16,22,11.40
2007,03,28,16,23,11.40
2007,03,28,16,24,11.30
2007,03,28,16,25,11.30
2007,03,28,16,26,11.30
2007,03,28,16,27,11.30
2007,03,28,16,28,11.40
2007,03,28,16,29,11.40
2007,03,28,16,30,11.40
2007,03,28,16,31,11.50
2007,03,28,16,32,11.60
2007,03,28,16,33,11.60
2007,03,28,16,34,11.60
2007,03,28,16,35,11.60
2007,03,28,16,36,11.60
2007,03,28,16,37,11.60
2007,03,28,16,38,11.60
2007,03,28,16,39,11.50
2007,03,28,16,40,11.40
2007,03,28,16,41,11.30
2007,03,28,16,42,11.30
2007,03,28,16,43,11.30
2007,03,28,16,44,11.40
2007,03,28,16,45,11.40
2007,03,28,16,46,11.50
2007,03,28,16,47,11.60
2007,03,28,16,48,11.60
2007,03,28,16,49,11.60
2007,03,28,16,50,11.60
2007,03,28,16,51,11.60
2007,03,28,16,52,11.50
2007,03,28,16,53,11.40
2007,03,28,16,54,11.40
2007,03,28,16,55,11.40
2007,03,28,16,56,11.50
2007,03,28,16,57,11.60
2007,03,28,16,58,11.60
2007,03,28,16,59,11.50
2007,03,28,17,00,11.40
2007,03,28,17,01,11.40
2007,03,28,17,02,11.40
2007,03,28,17,03,11.40
2007,03,28,17,04,11.40
2007,03,28,17,05,11.40
2007,03,28,17,06,11.40
2007,03,28,17,07,11.40
2007,03,28,17,08,11.40
2007,03,28,17,09,11.40
2007,03,28,17,10,11.40
2007,03,28,17,11,11.40
2007,03,28,17,12,11.40
2007,03,28,17,13,11.40
2007,03,28,17,14,11.40
2007,03,28,17,15,11.40
2007,03,28,17,16,11.20
2007,03,28,17,17,11.10
2007,03,28,17,18,11.10
2007,03,28,17,19,11.10
2007,03,28,17,20,11.10
2007,03,28,17,21,11.10
2007,03,28,17,22,11.10
2007,03,28,17,23,11.10
2007,03,28,17,24,10.90
2007,03,28,17,25,10.90
2007,03,28,17,26,10.90
2007,03,28,17,27,10.90
2007,03,28,17,28,10.90
2007,03,28,17,29,10.80
2007,03,28,17,30,10.80
2007,03,28,17,31,10.80
2007,03,28,17,32,10.80
2007,03,28,17,33,10.70
2007,03,28,17,34,10.70
2007,03,28,17,35,10.70
2007,03,28,17,36,10.60
2007,03,28,17,37,10.60
2007,03,28,17,38,10.60
2007,03,28,17,39,10.50
2007,03,28,17,40,10.40
2007,03,28,17,41,10.40
2007,03,28,17,42,10.40
2007,03,28,17,43,10.40
2007,03,28,17,44,10.40
2007,03,28,17,45,10.40
2007,03,28,17,46,10.40
2007,03,28,17,47,10.40
2007,03,28,17,48,10.40
2007,03,28,17,49,10.40
2007,03,28,17,50,10.30
2007,03,28,17,51,10.30
2007,03,28,17,52,10.30
2007,03,28,17,53,10.30
2007,03,28,17,54,10.30
2007,03,28,17,55,10.20
2007,03,28,17,56,10.20
2007,03,28,17,57,10.20
2007,03,28,17,58,10.20
2007,03,28,17,59,10.20
2007,03,28,18,00,10.20
2007,03,28,18,01,10.20
2007,03,28,18,02,10.20
2007,03,28,18,03,10.20
2007,03,28,18,04,10.20
2007,03,28,18,05,10.20
2007,03,28,18,06,10.20
2007,03,28,18,07,10.20
2007,03,28,18,08,10.20
2007,03,28,18,09,10.20
2007,03,28,18,10,10.20
2007,03,28,18,11,10.20
2007,03,28,18,12,10.10
2007,03,28,18,13,10.10
2007,03,28,18,14,10.10
2007,03,28,18,15,10.10
2007,03,28,18,16,10.10
2007,03,28,18,17,10.10
2007,03,28,18,18,10.10
2007,03,28,18,19,10.10
2007,03,28,18,20,10.10
2007,03,28,18,21,10.00
2007,03,28,18,22,9.90
2007,03,28,18,23,9.90
2007,03,28,18,24,9.90
2007,03,28,18,25,9.90
2007,03,28,18,26,9.80
2007,03,28,18,27,9.80
2007,03,28,18,28,9.80
2007,03,28,18,29,9.70
2007,03,28,18,30,9.70
2007,03,28,18,31,9.70
2007,03,28,18,32,9.70
2007,03,28,18,33,9.70
2007,03,28,18,34,9.70
2007,03,28,18,35,9.60
2007,03,28,18,36,9.60
2007,03,28,18,37,9.60
2007,03,28,18,38,9.50
2007,03,28,18,39,9.50
2007,03,28,18,40,9.50
2007,03,28,18,41,9.40
2007,03,28,18,42,9.40
2007,03,28,18,43,9.40
2007,03,28,18,44,9.40
2007,03,28,18,45,9.40
2007,03,28,18,46,9.40
2007,03,28,18,47,9.40
2007,03,28,18,48,9.30
2007,03,28,18,49,9.30
2007,03,28,18,50,9.30
2007,03,28,18,51,9.30
2007,03,28,18,52,9.30
2007,03,28,18,53,9.30
2007,03,28,18,54,9.30
2007,03,28,18,55,9.30
2007,03,28,18,56,9.20
2007,03,28,18,57,9.20
2007,03,28,18,58,9.20
2007,03,28,18,59,9.20
2007,03,28,19,00,9.20
2007,03,28,19,01,9.10
2007,03,28,19,02,9.10
2007,03,28,19,03,9.10
2007,03,28,19,04,9.10
2007,03,28,19,05,9.00
2007,03,28,19,06,9.00
2007,03,28,19,07,9.00
2007,03,28,19,08,9.00
2007,03,28,19,09,8.90
2007,03,28,19,10,8.90
2007,03,28,19,11,8.90
2007,03,28,19,12,8.90
2007,03,28,19,13,8.90
2007,03,28,19,14,8.90
2007,03,28,19,15,8.80
2007,03,28,19,16,8.80
2007,03,28,19,17,8.80
2007,03,28,19,18,8.80
2007,03,28,19,19,8.70
2007,03,28,19,20,8.70
2007,03,28,19,21,8.70
2007,03,28,19,22,8.70
2007,03,28,19,23,8.70
2007,03,28,19,24,8.70
2007,03,28,19,25,8.70
2007,03,28,19,26,8.70
2007,03,28,19,27,8.70
2007,03,28,19,28,8.70
2007,03,28,19,29,8.70
2007,03,28,19,30,8.60
2007,03,28,19,31,8.60
2007,03,28,19,32,8.60
2007,03,28,19,33,8.60
2007,03,28,19,34,8.60
2007,03,28,19,35,8.60
2007,03,28,19,36,8.60
2007,03,28,19,37,8.60
2007,03,28,19,38,8.60
2007,03,28,19,39,8.60
2007,03,28,19,40,8.50
2007,03,28,19,41,8.50
2007,03,28,19,42,8.50
2007,03,28,19,43,8.50
2007,03,28,19,44,8.50
2007,03,28,19,45,8.40
2007,03,28,19,46,8.40
2007,03,28,19,47,8.40
2007,03,28,19,48,8.40
2007,03,28,19,49,8.40
2007,03,28,19,50,8.40
2007,03,28,19,51,8.40
2007,03,28,19,52,8.40
2007,03,28,19,53,8.40
2007,03,28,19,54,8.40
2007,03,28,19,55,8.40
2007,03,28,19,56,8.30
2007,03,28,19,57,8.30
2007,03,28,19,58,8.30
2007,03,28,19,59,8.30
2007,03,28,20,00,8.30
2007,03,28,20,01,8.30
2007,03,28,20,02,8.30
2007,03,28,20,03,8.30
2007,03,28,20,04,8.30
2007,03,28,20,05,8.30
2007,03,28,20,06,8.30
2007,03,28,20,07,8.30
2007,03,28,20,08,8.30
2007,03,28,20,09,8.30
2007,03,28,20,10,8.30
2007,03,28,20,11,8.30
2007,03,28,20,12,8.30
2007,03,28,20,13,8.20
2007,03,28,20,14,8.20
2007,03,28,20,15,8.20
2007,03,28,20,16,8.20
2007,03,28,20,17,8.20
2007,03,28,20,18,8.20
2007,03,28,20,19,8.20
2007,03,28,20,20,8.20
2007,03,28,20,21,8.20
2007,03,28,20,22,8.20
2007,03,28,20,23,8.20
2007,03,28,20,24,8.20
2007,03,28,20,25,8.20
2007,03,28,20,26,8.20
2007,03,28,20,27,8.20
2007,03,28,20,28,8.20
2007,03,28,20,29,8.20
2007,03,28,20,30,8.20
2007,03,28,20,31,8.20
2007,03,28,20,32,8.20
2007,03,28,20,33,8.20
2007,03,28,20,34,8.20
2007,03,28,20,35,8.20
2007,03,28,20,36,8.20
2007,03,28,20,37,8.20
2007,03,28,20,38,8.20
2007,03,28,20,39,8.20
2007,03,28,20,40,8.20
2007,03,28,20,41,8.10
2007,03,28,20,42,8.10
2007,03,28,20,43,8.10
2007,03,28,20,44,8.10
2007,03,28,20,45,8.10
2007,03,28,20,46,8.10
2007,03,28,20,47,8.10
2007,03,28,20,48,8.10
2007,03,28,20,49,8.10
2007,03,28,20,50,8.10
2007,03,28,20,51,8.10
2007,03,28,20,52,8.10
2007,03,28,20,53,8.10
2007,03,28,20,54,8.10
2007,03,28,20,55,8.10
2007,03,28,20,56,8.00
2007,03,28,20,57,8.00
2007,03,28,20,58,8.00
2007,03,28,20,59,8.00
2007,03,28,21,00,8.00
2007,03,28,21,01,8.00
2007,03,28,21,02,8.00
2007,03,28,21,03,8.00
2007,03,28,21,04,8.00
2007,03,28,21,05,8.00
2007,03,28,21,06,8.00
2007,03,28,21,07,8.00
2007,03,28,21,08,8.00
2007,03,28,21,09,8.00
2007,03,28,21,10,8.00
2007,03,28,21,11,8.00
2007,03,28,21,12,8.00
2007,03,28,21,13,8.00
2007,03,28,21,14,8.00
2007,03,28,21,15,8.00
2007,03,28,21,16,8.00
2007,03,28,21,17,8.00
2007,03,28,21,18,8.00
2007,03,28,21,19,7.90
2007,03,28,21,20,7.90
2007,03,28,21,21,7.90
2007,03,28,21,22,7.90
2007,03,28,21,23,7.90
2007,03,28,21,24,7.90
2007,03,28,21,25,7.90
2007,03,28,21,26,7.90
2007,03,28,21,27,7.90
2007,03,28,21,28,7.90
2007,03,28,21,29,7.90
2007,03,28,21,30,7.90
2007,03,28,21,31,7.90
2007,03,28,21,32,7.90
2007,03,28,21,33,7.90
2007,03,28,21,34,7.90
2007,03,28,21,35,7.90
2007,03,28,21,36,7.90
2007,03,28,21,37,7.90
2007,03,28,21,38,7.90
2007,03,28,21,39,7.80
2007,03,28,21,40,7.80
2007,03,28,21,41,7.80
2007,03,28,21,42,7.80
2007,03,28,21,43,7.80
2007,03,28,21,44,7.80
2007,03,28,21,45,7.80
2007,03,28,21,46,7.80
2007,03,28,21,47,7.80
2007,03,28,21,48,7.80
2007,03,28,21,49,7.80
2007,03,28,21,50,7.80
2007,03,28,21,51,7.80
2007,03,28,21,52,7.80
2007,03,28,21,53,7.80
2007,03,28,21,54,7.80
2007,03,28,21,55,7.80
2007,03,28,21,56,7.80
2007,03,28,21,57,7.80
2007,03,28,21,58,7.80
2007,03,28,21,59,7.80
2007,03,28,22,00,7.70
2007,03,28,22,01,7.70
2007,03,28,22,02,7.70
2007,03,28,22,03,7.70
2007,03,28,22,04,7.70
2007,03,28,22,05,7.70
2007,03,28,22,06,7.70
2007,03,28,22,07,7.70
2007,03,28,22,08,7.70
2007,03,28,22,09,7.70
2007,03,28,22,10,7.70
2007,03,28,22,11,7.60
2007,03,28,22,12,7.60
2007,03,28,22,13,7.60
2007,03,28,22,14,7.60
2007,03,28,22,15,7.60
2007,03,28,22,16,7.60
2007,03,28,22,17,7.60
2007,03,28,22,18,7.60
2007,03,28,22,19,7.60
2007,03,28,22,20,7.60
2007,03,28,22,21,7.50
2007,03,28,22,22,7.50
2007,03,28,22,23,7.50
2007,03,28,22,24,7.50
2007,03,28,22,25,7.50
2007,03,28,22,26,7.50
2007,03,28,22,27,7.50
2007,03,28,22,28,7.50
2007,03,28,22,29,7.50
2007,03,28,22,30,7.50
2007,03,28,22,31,7.50
2007,03,28,22,32,7.50
2007,03,28,22,33,7.50
2007,03,28,22,34,7.50
2007,03,28,22,35,7.40
2007,03,28,22,36,7.40
2007,03,28,22,37,7.40
2007,03,28,22,38,7.40
2007,03,28,22,39,7.40
2007,03,28,22,40,7.40
2007,03,28,22,41,7.40
2007,03,28,22,42,7.40
2007,03,28,22,43,7.40
2007,03,28,22,44,7.40
2007,03,28,22,45,7.40
2007,03,28,22,46,7.40
2007,03,28,22,47,7.40
2007,03,28,22,48,7.40
2007,03,28,22,49,7.40
2007,03,28,22,50,7.30
2007,03,28,22,51,7.30
2007,03,28,22,52,7.30
2007,03,28,22,53,7.30
2007,03,28,22,54,7.30
2007,03,28,22,55,7.30
2007,03,28,22,56,7.30
2007,03,28,22,57,7.20
2007,03,28,22,58,7.20
2007,03,28,22,59,7.20
2007,03,28,23,00,7.10
2007,03,28,23,01,7.10
2007,03,28,23,02,7.10
2007,03,28,23,03,7.00
2007,03,28,23,04,7.00
2007,03,28,23,05,7.00
2007,03,28,23,06,6.90
2007,03,28,23,07,6.80
2007,03,28,23,08,6.80
2007,03,28,23,09,6.80
2007,03,28,23,10,6.70
2007,03,28,23,11,6.70
2007,03,28,23,12,6.70
2007,03,28,23,13,6.60
2007,03,28,23,14,6.60
2007,03,28,23,15,6.60
2007,03,28,23,16,6.60
2007,03,28,23,17,6.60
2007,03,28,23,18,6.60
2007,03,28,23,19,6.60
2007,03,28,23,20,6.50
2007,03,28,23,21,6.40
2007,03,28,23,22,6.40
2007,03,28,23,23,6.40
2007,03,28,23,24,6.40
2007,03,28,23,25,6.40
2007,03,28,23,26,6.30
2007,03,28,23,27,6.30
2007,03,28,23,28,6.20
2007,03,28,23,29,6.20
2007,03,28,23,30,6.20
2007,03,28,23,31,6.20
2007,03,28,23,32,6.10
2007,03,28,23,33,6.10
2007,03,28,23,34,6.00
2007,03,28,23,35,6.00
2007,03,28,23,36,6.00
2007,03,28,23,37,5.90
2007,03,28,23,38,5.90
2007,03,28,23,39,5.90
2007,03,28,23,40,5.90
2007,03,28,23,41,5.80
2007,03,28,23,42,5.80
2007,03,28,23,43,5.80
2007,03,28,23,44,5.70
2007,03,28,23,45,5.70
2007,03,28,23,46,5.70
2007,03,28,23,47,5.70
2007,03,28,23,48,5.70
2007,03,28,23,49,5.70
2007,03,28,23,50,5.60
2007,03,28,23,51,5.60
2007,03,28,23,52,5.60
2007,03,28,23,53,5.50
2007,03,28,23,54,5.50
2007,03,28,23,55,5.50
2007,03,28,23,56,5.50
2007,03,28,23,57,5.50
2007,03,28,23,58,5.40
2007,03,28,23,59,5.40
